Home > Weather > Ufa > Past weeks

Flag for Russia Weather for the Past 2 Weeks in Ufa, Russia

Now
50 °F

Passing clouds.


Feels Like: 49 °F
Forecast: 43 / 69 °F
Wind: 3 mph from West

Location: Ufa

Current Time: May 5, 2016 at 11:30:56 PM

Latest Report: May 5, 2016 at 11:00 PM


Visibility: N/A

Pressure: 29.95 "Hg

Humidity: 47%

Dew Point: 30 °F

Location of UfaLocation

Historic Weather in Ufa — Graph

°F

Ufa Temperature Yesterday

Maximum temperature yesterday: 68 °F (at 4:30 PM)
Minimum temperature yesterday: 48 °F (at 7:00 AM)
Average temperature yesterday: 59 °F

High & Low Weather Summary for the Past Weeks

 TemperatureHumidityPressure
High68 °F (May 4, 4:30 PM)100% (Apr 23, 12:30 AM)30.39 "Hg (Apr 23, 12:30 AM)
Low34 °F (Apr 25, 2:00 AM)18% (May 5, 6:30 PM)29.62 "Hg (Apr 20, 10:00 PM)
Average52 °F56%30.06 "Hg
* Reported Apr 20 10:00 PM — May 5 10:30 PM, Ufa, Weather by CustomWeather, © 2016

Note: Actual official high and low records may vary slightly from our data, if they occured in-between our weather recording intervals... More about our weather records

Advertising

Ufa Weather History for the Previous 24 Hours

Scroll right to see more
 ConditionsComfort  
Time TempWeatherWind HumidityBarometerVisibility
10:30 PM
Thu, May 5
50 °FPassing clouds.3 mph47%29.95 "HgN/A
10:00 PM55 °FClear.1 mph36%29.95 "Hg10 mi
9:30 PM57 °FPassing clouds.3 mph33%29.92 "HgN/A
9:00 PM61 °FPassing clouds.3 mph27%29.92 "HgN/A
8:30 PM64 °FPassing clouds.3 mph22%29.92 "HgN/A
8:00 PM66 °FPassing clouds.3 mph19%29.92 "HgN/A
7:30 PM66 °FPassing clouds.3 mph21%29.92 "HgN/A
7:00 PM68 °FPassing clouds.6 mph24%29.92 "HgN/A
6:30 PM68 °FSunny.6 mph18%29.92 "Hg10 mi
6:00 PM68 °FPassing clouds.3 mph23%29.92 "HgN/A
5:30 PM68 °FPassing clouds.3 mph20%29.92 "HgN/A
5:00 PM68 °FSunny.6 mph20%29.92 "Hg10 mi
4:30 PM68 °FPassing clouds.8 mph20%29.92 "HgN/A
4:00 PM68 °FPassing clouds.6 mph21%29.92 "HgN/A
3:30 PM68 °FSunny.3 mph20%29.92 "Hg10 mi
3:00 PM66 °FSunny.6 mph24%29.92 "Hg10 mi
2:30 PM66 °FPassing clouds.3 mph22%29.95 "HgN/A
2:00 PM66 °FPassing clouds.6 mph21%29.92 "HgN/A
1:30 PM66 °FPassing clouds.6 mph24%29.95 "HgN/A
1:00 PM66 °FPassing clouds.6 mph22%29.92 "HgN/A
12:30 PM66 °FPassing clouds.8 mph24%29.95 "HgN/A
12:00 PM64 °FPassing clouds.6 mph26%29.95 "HgN/A
11:30 AM64 °FPassing clouds.6 mph24%29.95 "HgN/A
11:00 AM63 °FPassing clouds.8 mph25%29.95 "HgN/A
10:30 AM63 °FPassing clouds.8 mph30%29.95 "HgN/A
10:00 AM61 °FPassing clouds.6 mph31%29.95 "HgN/A
9:30 AM59 °FSunny.6 mph36%29.95 "Hg10 mi
9:00 AM57 °FSunny.6 mph39%29.95 "Hg10 mi
8:30 AM54 °FSunny.8 mph44%29.92 "Hg10 mi
8:00 AM50 °FSunny.8 mph47%29.92 "Hg10 mi
7:30 AM46 °FSunny.6 mph53%29.92 "Hg10 mi
7:00 AM43 °FSunny.6 mph57%29.92 "Hg10 mi
6:30 AM39 °FSunny.6 mph65%29.92 "Hg10 mi
6:00 AM37 °FClear.8 mph70%29.92 "Hg10 mi
5:30 AM37 °FClear.6 mph65%29.92 "Hg10 mi
5:00 AM39 °FClear.6 mph61%29.92 "Hg10 mi
4:30 AM39 °FClear.3 mph61%29.92 "Hg10 mi
4:00 AM41 °FClear.6 mph57%29.92 "Hg10 mi
3:30 AM43 °FClear.3 mph53%29.92 "Hg10 mi
3:00 AM43 °FClear.6 mph57%29.92 "Hg10 mi
2:30 AM43 °FClear.6 mph57%29.89 "Hg10 mi
2:00 AM43 °FClear.6 mph57%29.89 "Hg10 mi
1:30 AM43 °FClear.6 mph57%29.89 "Hg10 mi
1:00 AM46 °FClear.6 mph50%29.89 "Hg10 mi
12:30 AM46 °FClear.3 mph50%29.89 "Hg10 mi
12:00 AM48 °FClear.6 mph50%29.89 "Hg10 mi
11:30 PM
Wed, May 4
48 °FClear.6 mph50%29.89 "Hg10 mi
11:00 PM50 °FClear.8 mph47%29.89 "Hg10 mi
Weather by CustomWeather, © 2016

See weather overviewHow to use our weather pages